Tracking 31027 objects as of 19-Jul-2025
HD Live streaming from Space Station
objects crossing your sky now

SOLRAD 11A

Track SOLRAD 11A now!
SOLRAD 11A is classified as:


NORAD ID: 8748
Int'l Code: 1976-023C
Perigee: 117,345.7 km
Apogee: 119,653.7 km
Inclination: 15.3 °
Period: 7,319.0 minutes
Semi major axis: 124870 km
RCS: Unknown
Launch date: March 15, 1976
Source: United States (US)
Launch site: AIR FORCE EASTERN TEST RANGE (AFETR)
Your satellite tracking list
FENGYUN 1C DEB
Track 1 satellite(s)




NASA's NSSDC Master Catalog

Two Line Element Set (TLE):
1 08748U 76023C   25198.92065299 -.00000587  00000-0  00000-0 0  9993
2 08748  15.2537 346.4557 0092413 193.8488 356.8432  0.19674879  4800
Source of the keplerian elements: AFSPC